Weather History for TNCC - September, 2013

Change the Weather History Date:

Saturday, September 14, 2013

  Actual Average Record
Temperature  
Mean Temperature 85 °F -  
Max Temperature 89 °F 89 °F 98 °F (2003)
Min Temperature 81 °F 78 °F 75 °F (1999)
Cooling Degree Days 20    
Growing Degree Days 35 (Base 50)    
Moisture  
Dew Point 77 °F    
Average Humidity 74    
Maximum Humidity 84    
Minimum Humidity 60    
Precipitation  
Precipitation 0.00 in 0.08 in - ()
Sea Level Pressure  
Sea Level Pressure 29.81 in    
Wind  
Wind Speed 9 mph ()    
Max Wind Speed 17 mph    
Max Gust Speed -    
Visibility 6.2 miles    
Events      
Averages and records for this station are not official NWS values.
T = Trace of Precipitation, MM = Missing Value Source: Averaged Metar Reports

Daily Weather History Graph

Daily Weather History Graph

Search for Another Location

Airport or City:

Trip Planner

Search our weather history database for the weather conditions in past years. The results will help you decide how hot, cold, wet, or windy it might be!

Date:

Astronomy

Sep. 14, 2013 Rise Set
Actual Time 6:25 AM AST 6:37 PM AST
Civil Twilight 6:03 AM AST 6:58 PM AST
Nautical Twilight 5:39 AM AST 7:23 PM AST
Astronomical Twilight 5:14 AM AST 7:47 PM AST
Moon 2:37 PM AST (9/14) 1:34 AM AST (9/14)
Length of Visible Light 12h 54m
Length of Day
12h 12m
Waxing Gibbous, 72% of the Moon is Illuminated
Sep 14
Waxing Gibbous
Sep 19
Full
Sep 26
Last Quarter
Oct 4
New
Oct 11
First Quarter

Hourly Weather History & Observations

Time (AST) Temp. Heat Index Dew Point Humidity Pressure Visibility Wind Dir Wind Speed Gust Speed Precip Events Conditions
12:00 AM 84.2 °F 94.1 °F 77.0 °F 79% 29.80 in 6.2 mi East 9.2 mph - N/A   Partly Cloudy
1:00 AM 82.4 °F 89.5 °F 75.2 °F 79% 29.80 in 6.2 mi ESE 4.6 mph - N/A   Scattered Clouds
2:00 AM 82 °F - 76 °F 76% 29.79 in 37 mi ESE 4.6 mph - -   Partly Cloudy
2:00 AM 82.4 °F 89.5 °F 75.2 °F 79% 29.77 in 6.2 mi ESE 4.6 mph - N/A   Scattered Clouds
3:00 AM 82.4 °F 90.9 °F 77.0 °F 84% 29.77 in 6.2 mi East 6.9 mph - N/A   Scattered Clouds
4:00 AM 82.4 °F 90.9 °F 77.0 °F 84% 29.77 in 6.2 mi East 10.4 mph - N/A   Partly Cloudy
5:00 AM 83 °F - 76 °F 73% 29.78 in 37 mi ESE 8.1 mph - -   Scattered Clouds
5:00 AM 82.4 °F 89.5 °F 75.2 °F 79% 29.77 in 6.2 mi East 11.5 mph - N/A   Partly Cloudy
6:00 AM 82.4 °F 89.5 °F 75.2 °F 79% 29.77 in 6.2 mi ESE 10.4 mph - N/A   Partly Cloudy
7:00 AM 82.4 °F 89.5 °F 75.2 °F 79% 29.80 in 6.2 mi ESE 9.2 mph - N/A   Scattered Clouds
8:00 AM 86 °F - 76 °F 65% 29.83 in 37 mi SE 8.1 mph - -   Partly Cloudy
8:00 AM 86.0 °F 95.1 °F 75.2 °F 70% 29.83 in 6.2 mi ESE 11.5 mph - N/A   Scattered Clouds
9:00 AM 86.0 °F 96.9 °F 77.0 °F 74% 29.86 in 6.2 mi East 11.5 mph - N/A   Scattered Clouds
10:00 AM 87.8 °F 99.7 °F 77.0 °F 70% 29.86 in 6.2 mi East 15.0 mph - N/A   Scattered Clouds
11:00 AM 89 °F - 77 °F 60% 29.86 in 37 mi ESE 15.0 mph - -   Partly Cloudy
11:00 AM 87.8 °F 99.7 °F 77.0 °F 70% 29.86 in 6.2 mi East 13.8 mph - N/A   Scattered Clouds
12:00 PM 89.6 °F 102.2 °F 77.0 °F 66% 29.83 in 6.2 mi East 15.0 mph - N/A   Scattered Clouds
1:00 PM 87.8 °F 99.7 °F 77.0 °F 70% 29.83 in 6.2 mi East 15.0 mph - N/A   Scattered Clouds
2:00 PM 89 °F - 77 °F 60% 29.79 in 37 mi East 17.3 mph - -   Scattered Clouds
2:00 PM 89.6 °F 102.2 °F 77.0 °F 66% 29.77 in 6.2 mi East 15.0 mph - N/A   Partly Cloudy
3:00 PM 87.8 °F 99.7 °F 77.0 °F 70% 29.77 in 6.2 mi East 15.0 mph - N/A   Partly Cloudy
4:00 PM 87.8 °F 99.7 °F 77.0 °F 70% 29.77 in 6.2 mi East 13.8 mph - N/A   Partly Cloudy
5:00 PM 88 °F - 77 °F 63% 29.77 in 37 mi East 12.7 mph - -   Scattered Clouds
5:00 PM 87.8 °F 99.7 °F 77.0 °F 70% 29.77 in 6.2 mi East 12.7 mph - N/A   Partly Cloudy
6:00 PM 86.0 °F 96.9 °F 77.0 °F 74% 29.80 in 6.2 mi East 12.7 mph - N/A   Partly Cloudy
7:00 PM 84.2 °F 96.1 °F 78.8 °F 84% 29.80 in 6.2 mi East 12.7 mph - N/A   Partly Cloudy
8:00 PM 84 °F - 78 °F 79% 29.82 in 37 mi East 11.5 mph - -   Scattered Clouds
8:00 PM 84.2 °F 96.1 °F 78.8 °F 84% 29.80 in 6.2 mi East 11.5 mph - N/A   Partly Cloudy
9:00 PM 84.2 °F 96.1 °F 78.8 °F 84% 29.86 in 6.2 mi East 11.5 mph - N/A   Partly Cloudy
10:00 PM 84.2 °F 94.1 °F 77.0 °F 79% 29.86 in 6.2 mi East 12.7 mph - N/A   Partly Cloudy
11:00 PM 84 °F - 77 °F 74% 29.87 in 37 mi East 11.5 mph - -   Scattered Clouds
11:00 PM 84.2 °F 94.1 °F 77.0 °F 79% 29.86 in 6.2 mi East 12.7 mph - N/A   Partly Cloudy